GFSSGP_250_spd_024.txt.gz
Wind_Speed
44 42 48 47 43 41 40 45 42 46 48 43 45 52 44 41 41 45 49 48 51 50 49 47 53 53 54 50 53 59 59 52 52 52 50 51 52 52 47 42 43 43 47 51 56 56 57 56 59
42 46 49 51 55 52 49 51 51 51 52 46 48 57 50 49 45 48 50 51 51 48 52 50 55 55 55 56 59 61 57 54 54 53 53 57 55 49 47 49 50 51 51 53 55 59 64 64 64
53 53 46 51 54 54 51 51 51 54 54 53 54 62 58 51 50 51 53 55 53 53 56 57 57 60 60 63 64 60 57 56 54 57 58 55 52 49 52 55 56 57 60 61 60 62 64 66 65
59 55 55 53 56 54 56 56 52 55 52 57 60 63 61 56 54 55 57 59 57 58 60 60 59 60 60 66 67 61 59 59 62 58 54 53 54 56 58 59 61 62 63 69 69 69 69 69 71
64 59 55 60 57 56 55 56 54 52 51 54 58 63 61 61 59 61 64 64 61 62 65 64 62 60 63 68 64 62 61 67 61 55 52 55 58 64 66 65 68 66 65 64 64 66 69 68 68
55 56 61 62 60 59 61 58 58 53 55 57 61 64 62 60 64 66 67 66 64 66 67 66 63 62 68 67 63 64 65 66 59 57 58 60 64 66 59 57 56 57 55 53 53 55 58 57 60
53 56 54 57 59 61 64 63 55 54 56 58 61 63 62 63 65 67 69 67 63 64 68 67 66 66 70 63 65 66 69 62 62 60 65 65 63 57 52 52 51 50 51 53 54 55 54 52 52
63 56 56 64 65 67 64 60 56 57 53 51 54 58 59 58 64 67 71 68 64 65 68 68 68 67 65 65 66 68 70 63 61 65 62 53 50 49 50 49 47 48 48 50 53 53 53 54 53
65 61 59 65 70 71 67 62 55 56 53 57 58 59 58 60 60 61 67 66 65 65 70 67 68 70 64 66 68 75 69 63 66 61 53 50 48 47 48 48 46 48 46 45 44 49 52 54 58
70 65 68 73 73 73 70 64 55 58 58 65 63 64 60 55 60 62 64 66 64 68 71 67 69 71 66 67 70 75 70 67 64 55 52 50 49 47 46 46 45 46 48 45 44 44 48 52 55
75 69 72 73 71 71 72 70 65 61 60 68 67 60 56 58 58 60 61 65 64 68 69 68 73 71 69 69 75 71 65 66 58 53 54 52 47 43 44 43 43 42 42 44 45 47 48 51 54
81 75 74 74 76 69 61 64 66 61 60 74 69 60 57 59 61 59 62 65 64 66 66 71 75 71 70 72 76 68 69 62 54 55 55 50 45 43 40 39 41 41 42 43 46 49 52 54 56
83 84 77 73 79 74 68 62 58 61 67 73 66 59 55 61 61 62 66 62 64 65 66 70 73 72 71 76 71 69 64 55 56 54 51 47 43 40 38 38 38 37 38 39 41 43 45 48 52
84 79 74 69 74 75 70 62 62 64 73 69 61 60 63 61 61 66 65 60 63 64 67 71 71 71 72 75 69 66 56 57 55 50 46 42 39 39 38 36 37 36 36 34 35 37 40 43 45
76 77 76 71 70 70 74 60 66 70 76 68 66 66 65 62 64 70 63 63 62 65 67 71 70 69 74 69 68 59 55 56 52 47 44 43 43 42 39 36 34 33 32 33 34 36 39 42 43
79 77 72 71 76 79 82 60 72 75 75 70 70 71 67 61 66 66 61 62 63 64 69 69 69 70 71 64 61 53 57 54 48 45 45 45 43 38 31 29 28 29 31 33 36 39 42 44 45
81 74 74 78 79 72 77 64 73 76 77 74 74 71 66 60 65 63 60 62 62 65 66 66 66 70 61 64 55 54 58 51 46 47 46 43 37 31 25 23 25 30 36 39 41 42 42 43 47
76 80 81 80 86 83 84 72 79 76 76 75 71 65 59 63 68 60 60 60 63 64 62 64 65 65 59 60 51 55 53 47 47 47 42 35 29 24 26 28 30 39 40 40 38 38 38 39 42
87 85 79 77 78 78 77 73 69 74 65 64 61 57 61 64 65 60 58 60 60 60 60 61 65 57 59 52 50 55 47 46 46 41 33 30 27 28 31 33 40 41 35 35 34 35 35 33 35
87 85 76 73 76 84 77 73 69 70 65 64 59 57 61 58 61 59 55 59 58 57 59 62 58 53 54 48 52 49 45 45 41 35 29 27 30 34 36 36 40 33 30 26 23 23 25 24 24
83 84 78 74 77 84 73 69 63 64 62 62 59 57 61 59 59 56 57 56 55 57 59 57 50 54 46 47 51 44 42 42 34 27 26 30 35 36 37 34 30 25 20 17 15 15 16 17 19
75 73 74 80 84 72 77 60 55 59 58 56 56 60 61 58 57 53 53 54 54 56 56 50 51 47 43 47 44 40 39 36 28 25 29 36 38 36 29 26 21 16 14 11 11 11 12 13 14
63 71 74 77 75 67 60 57 51 56 55 53 54 58 55 52 49 48 49 52 54 54 47 46 48 40 44 44 37 36 36 31 24 27 34 36 29 26 23 19 14 10 8 6 5 6 7 10 13
76 71 73 71 64 51 48 56 44 50 53 52 51 47 48 48 46 45 49 51 52 45 42 46 39 39 43 38 33 34 32 23 23 30 31 29 24 23 18 12 8 5 2 2 3 6 7 8 10
72 68 62 55 48 36 47 44 43 45 50 48 45 41 43 42 41 46 47 50 41 39 43 41 34 37 40 34 30 31 25 18 23 28 26 25 22 17 11 8 3 1 4 6 7 8 8 9 12
66 61 55 50 48 39 37 28 38 43 45 41 36 38 40 36 39 44 46 37 35 37 40 32 34 38 35 30 28 27 16 16 24 20 21 19 17 10 5 1 5 7 8 7 7 9 10 14 15
71 66 54 53 43 29 27 30 37 34 38 33 30 30 28 32 37 37 28 29 32 38 30 31 35 38 29 26 24 19 11 18 18 17 19 16 10 5 6 10 9 10 12 10 12 13 14 17 16
81 71 66 55 38 27 28 34 36 30 33 30 23 23 24 25 23 20 24 27 33 30 27 31 36 29 23 22 21 8 10 17 12 15 17 13 8 5 7 13 13 15 14 12 11 13 14 15 19
84 75 60 48 33 26 27 34 29 29 29 25 21 20 20 20 20 21 25 28 29 24 27 30 28 21 22 21 15 1 10 16 12 11 16 12 9 8 11 13 15 13 14 14 14 11 12 19 28
81 76 63 46 35 33 31 33 30 37 29 28 20 16 17 19 18 20 23 30 21 23 26 29 21 19 21 19 4 4 9 13 10 11 14 9 7 12 12 13 19 18 18 17 18 17 18 24 38

GFSSGP_250_spd_027.txt.gz
Wind_Speed
51 52 47 41 40 41 41 40 47 50 44 46 50 54 50 42 43 46 51 51 48 51 50 48 49 53 57 59 58 55 53 51 56 55 50 47 48 50 53 56 59 56 58 57 54 55 54 54 59
56 56 54 48 45 48 50 52 54 51 51 50 54 53 51 47 48 51 56 58 54 55 55 53 53 59 59 63 60 58 56 58 57 53 51 50 52 57 61 59 58 58 56 58 58 55 56 59 56
55 55 50 49 55 50 55 53 57 57 54 55 51 56 53 49 54 57 60 58 56 57 56 54 55 62 61 64 63 62 62 59 54 54 53 55 59 59 57 58 58 58 60 63 64 65 64 65 62
50 50 52 55 55 56 57 52 53 56 55 55 57 56 54 51 54 56 59 61 59 60 56 54 55 60 61 64 66 65 61 55 54 56 58 60 63 62 63 60 59 61 60 64 71 72 74 73 67
54 52 57 61 60 60 59 60 57 57 57 53 53 58 57 50 58 58 59 60 60 62 59 57 57 61 61 64 66 65 61 60 55 60 61 67 66 66 63 61 63 63 60 61 64 70 78 77 76
57 55 58 62 64 59 57 61 60 58 61 59 55 58 59 53 57 54 55 59 61 60 59 58 58 61 63 67 68 67 64 62 59 63 68 68 69 65 66 66 64 62 59 55 53 56 61 75 82
64 63 54 58 54 54 54 55 58 64 61 57 59 63 61 56 50 52 55 59 63 62 60 60 60 62 62 68 68 65 68 67 66 68 71 71 68 72 66 59 58 57 54 52 50 51 52 56 66
68 66 57 55 56 57 54 48 51 54 59 58 57 61 61 60 56 53 57 64 68 68 63 60 60 61 66 67 67 67 68 68 68 70 72 71 72 66 59 55 56 52 50 49 50 50 51 54 57
70 70 67 65 61 62 64 61 59 54 58 59 63 60 58 59 61 58 60 64 66 68 64 62 62 63 66 68 67 66 67 69 72 72 74 74 65 57 57 57 53 52 49 48 48 49 48 51 55
74 71 70 70 67 66 66 66 64 59 63 63 61 69 66 65 64 60 61 65 67 66 65 60 65 63 65 68 67 67 69 68 72 74 76 66 60 60 57 53 51 50 49 49 47 49 47 47 51
81 71 72 72 73 73 70 71 70 69 64 67 63 63 67 69 70 67 67 68 68 65 61 61 64 66 66 69 67 70 69 72 74 77 70 60 61 54 49 48 47 47 45 45 47 48 46 46 48
80 77 81 78 75 75 75 73 73 75 68 69 69 70 63 65 62 62 69 65 67 65 64 67 65 66 69 71 70 69 70 72 76 71 65 60 55 50 47 44 41 40 41 42 43 45 47 48 48
78 78 85 79 79 77 79 76 76 75 73 71 74 73 67 63 63 60 59 64 67 67 71 69 62 68 70 72 69 71 72 74 75 69 62 60 53 48 45 43 41 40 39 38 40 42 45 48 49
79 82 80 80 79 79 82 76 77 76 72 73 73 69 65 60 61 62 65 67 68 72 72 69 64 68 70 71 69 72 74 77 71 65 59 57 51 45 44 42 38 35 33 35 37 38 40 44 46
88 89 84 80 82 86 90 75 71 73 75 72 69 68 60 63 64 69 70 66 66 73 70 68 66 68 70 71 69 72 73 75 67 61 56 53 48 45 43 39 34 31 26 32 31 33 35 38 41
90 89 82 76 81 81 86 63 71 73 77 72 69 70 65 62 69 70 69 63 68 70 68 68 68 66 69 67 69 72 74 71 62 58 53 52 47 44 40 35 30 27 25 26 29 31 35 39 42
90 83 77 78 81 81 85 67 70 76 78 76 71 66 66 67 70 69 68 64 68 66 68 65 68 66 66 65 69 70 70 66 59 56 51 48 45 41 36 31 28 26 28 32 34 39 41 44 44
80 82 84 84 82 90 88 75 72 80 82 80 73 69 70 67 65 64 62 63 67 64 64 67 65 65 64 65 69 71 67 61 56 53 49 46 42 39 36 34 32 27 34 39 43 46 45 44 44
84 93 87 83 83 96 90 83 74 79 83 78 80 71 67 67 64 64 61 64 63 62 63 63 63 64 62 66 69 64 62 56 53 49 47 44 39 35 35 38 34 33 40 45 45 45 42 40 39
94 98 86 81 81 89 89 92 84 81 79 76 72 68 68 67 66 67 68 67 60 60 64 60 60 60 62 66 62 63 56 53 49 45 45 41 35 38 40 43 40 40 40 41 39 34 30 29 30
93 93 83 84 84 90 88 89 74 71 74 73 71 69 63 63 65 68 68 67 60 61 60 57 58 57 63 60 60 57 53 49 45 43 41 36 38 41 42 41 36 31 36 29 26 24 21 20 19
83 79 80 81 83 83 88 77 70 67 68 70 67 62 64 61 63 64 63 58 56 58 54 53 53 58 60 55 57 50 47 43 42 41 35 37 40 37 37 36 33 29 25 21 19 18 16 14 16
70 75 74 78 75 78 73 71 56 65 67 68 67 65 61 61 61 59 54 54 55 52 48 48 53 57 52 55 49 47 42 39 40 35 35 36 32 33 37 32 27 23 19 15 11 10 9 9 11
75 77 73 72 69 64 56 58 45 53 56 59 60 58 57 58 57 53 50 50 47 45 43 47 52 49 49 47 44 43 36 36 35 32 32 29 32 32 30 24 20 16 13 8 6 2 1 4 5
82 77 73 71 63 49 46 51 43 48 44 48 53 53 54 54 50 48 47 42 39 37 42 48 45 44 44 42 43 36 31 32 29 30 32 29 30 29 23 18 14 9 4 4 6 5 4 5 3
83 81 73 62 55 53 49 44 40 39 41 43 44 45 44 44 40 43 38 34 32 37 42 39 39 42 39 39 36 28 27 23 25 30 28 28 28 21 14 10 4 3 5 6 5 3 5 7 5
85 89 61 70 63 56 44 33 42 39 39 40 39 31 31 30 32 28 27 27 32 34 30 33 37 35 36 35 26 23 21 19 22 23 24 25 21 12 6 4 3 4 3 6 7 5 7 6 7
96 74 83 75 66 52 44 34 41 43 34 31 29 14 21 22 20 24 25 26 27 25 28 33 31 32 34 25 19 20 13 16 22 17 21 23 15 9 4 3 3 3 5 7 7 4 4 7 9
91 88 80 75 68 59 49 37 46 40 31 27 18 13 20 23 27 22 21 21 21 24 29 27 27 33 27 17 17 9 7 16 14 14 22 19 10 2 3 2 5 4 5 5 4 6 4 10 20
91 86 80 74 62 52 41 45 39 30 28 26 17 18 23 22 21 23 18 16 18 26 24 23 27 28 18 15 12 4 6 13 13 17 18 12 3 3 2 2 5 6 6 9 9 8 13 20 47

GFSSGP_250_spd_030.txt.gz
Wind_Speed
54 48 40 41 47 52 47 43 41 42 42 42 47 50 51 47 53 50 50 42 43 44 44 45 47 49 53 56 57 58 60 59 61 60 56 55 51 49 48 48 49 54 57 62 64 64 62 62 62
51 47 45 47 48 52 53 47 42 46 44 53 51 52 54 52 56 49 51 49 46 48 50 50 51 53 55 57 58 61 61 60 63 64 60 57 53 52 49 51 54 57 57 57 61 66 67 63 63
51 51 55 53 56 59 56 56 52 49 51 52 56 55 54 55 55 54 52 50 49 53 52 52 52 56 56 56 59 62 61 61 64 65 65 61 54 52 52 55 62 60 59 60 61 63 67 66 66
51 46 47 45 45 47 53 56 54 58 55 51 55 57 55 56 55 55 54 53 53 55 50 52 53 55 57 59 60 64 62 62 65 65 63 63 58 56 57 60 62 60 59 60 60 62 64 66 65
58 58 54 51 50 47 51 54 53 57 57 60 60 58 61 59 56 60 60 57 56 49 53 57 56 59 60 61 60 60 62 63 66 67 65 64 61 60 61 67 64 63 64 65 65 66 68 68 68
63 64 65 63 60 58 54 55 59 60 58 58 59 63 60 59 57 61 60 60 61 57 55 59 59 62 58 63 62 62 61 65 67 68 66 64 63 63 67 67 67 70 70 66 57 54 54 60 67
63 65 64 62 55 54 54 57 58 64 63 63 56 49 52 50 48 56 55 55 59 63 61 65 67 66 66 64 64 62 64 67 70 69 67 66 66 68 71 69 68 62 58 55 52 50 47 49 56
68 65 64 63 61 56 60 59 50 57 56 52 49 50 51 52 52 55 57 59 57 61 62 64 70 70 68 68 65 67 68 68 71 70 69 69 69 72 73 73 65 60 61 58 55 52 51 49 50
73 69 70 69 63 58 64 66 64 59 56 56 59 57 54 57 56 60 63 63 66 69 67 65 69 75 66 66 66 68 69 67 70 72 70 70 71 75 72 72 65 62 57 52 50 49 49 51 50
81 72 66 70 70 63 62 68 73 69 65 63 62 62 61 64 64 64 62 65 63 66 68 60 64 68 68 68 70 72 69 69 72 72 72 71 73 75 70 64 66 62 54 46 46 46 45 47 48
77 73 76 74 75 76 71 70 71 73 73 66 64 64 64 67 70 68 64 65 67 70 69 69 55 68 70 69 71 74 70 69 73 71 71 72 76 74 71 69 63 55 48 45 44 42 44 42 44
85 74 78 77 77 79 78 75 73 73 68 69 68 69 69 75 75 71 65 64 68 69 66 73 64 68 74 69 70 73 72 73 72 71 71 73 75 73 70 63 55 48 47 45 42 43 40 41 40
80 82 85 82 83 80 80 76 73 74 72 74 73 74 72 72 76 69 59 63 62 61 66 73 72 69 75 74 70 71 73 71 70 70 73 76 73 70 67 60 55 50 43 39 39 39 38 39 41
84 88 87 84 82 81 81 74 76 70 73 75 74 74 76 72 70 64 59 65 62 65 68 74 75 70 71 74 74 72 71 68 69 69 71 76 74 68 64 56 52 44 37 31 29 29 27 33 37
92 94 91 76 70 67 74 76 76 70 77 76 77 78 77 73 66 64 65 65 62 63 70 74 71 68 71 74 76 72 71 69 69 69 73 72 73 65 60 53 47 40 31 27 22 23 25 29 31
87 92 83 73 79 75 83 79 73 79 84 81 79 79 79 75 73 62 67 67 62 64 67 68 70 65 71 73 74 71 70 69 67 70 73 72 68 62 56 50 44 34 30 24 22 27 31 30 28
86 84 81 79 81 82 90 87 73 81 84 81 79 74 75 71 72 66 68 69 66 69 69 71 70 65 70 71 70 71 68 67 68 72 70 69 65 59 53 45 37 33 28 30 32 33 34 37 34
90 96 89 86 87 90 93 91 77 79 82 79 77 75 75 73 71 69 77 76 70 73 69 70 71 70 70 70 69 67 65 64 69 69 70 64 58 55 50 43 40 36 36 39 34 41 43 46 44
97 94 93 92 92 95 99 98 82 78 78 75 73 76 76 75 77 77 74 73 69 72 70 70 73 72 71 67 67 62 61 64 68 68 65 62 55 51 47 42 40 37 40 39 40 43 43 44 43
99 96 91 88 90 88 95 95 87 80 76 79 77 75 81 77 75 71 71 68 71 69 71 72 72 71 67 64 58 56 59 64 65 64 59 59 52 46 42 42 35 36 31 33 31 34 32 30 27
91 87 90 89 89 86 91 93 84 80 79 76 78 76 74 75 72 70 68 62 69 66 68 69 67 64 59 55 53 54 59 60 64 60 54 53 46 40 38 34 33 33 25 32 32 26 21 20 19
89 84 90 87 88 81 92 80 74 75 73 73 72 74 72 70 69 67 65 61 63 63 65 65 62 57 53 50 50 53 56 60 58 56 50 44 40 36 39 39 34 34 30 25 21 18 17 14 13
76 83 85 83 82 80 78 76 58 69 64 65 63 62 62 63 61 60 57 62 59 60 59 57 52 48 46 45 49 52 56 56 53 48 43 35 32 39 34 37 31 27 22 18 16 12 10 8 9
79 79 84 80 80 73 58 67 44 49 52 47 46 47 49 50 51 49 53 53 53 54 52 47 43 41 41 43 48 52 53 51 47 41 36 32 34 28 34 25 23 20 15 10 7 5 4 3 3
84 81 79 79 70 53 50 53 36 39 36 30 36 39 43 46 48 48 49 49 48 46 43 40 36 35 37 43 47 49 49 44 38 34 30 34 32 32 20 22 18 11 6 5 8 9 6 7 4
92 85 80 73 63 53 46 38 39 39 35 32 35 37 42 45 45 43 44 39 37 36 33 29 30 31 38 43 45 43 42 37 32 27 28 31 29 27 19 19 10 7 6 8 6 5 6 3 2
93 98 75 76 71 67 54 52 44 39 40 37 37 37 38 40 40 36 29 27 26 24 24 24 24 33 38 40 40 39 36 31 24 25 25 25 30 23 17 14 15 8 6 10 10 8 7 9 9
106 92 88 81 75 66 54 54 48 41 43 39 34 34 36 35 29 21 16 17 18 20 19 22 29 34 34 36 37 33 29 19 20 20 22 27 28 19 13 10 7 6 8 12 10 7 7 17 29
109 100 97 84 79 68 59 57 51 46 41 45 30 34 32 26 13 13 15 17 18 17 20 23 29 28 32 33 30 28 14 12 15 19 23 26 21 16 13 5 3 4 7 5 1 5 18 33 31
107 103 96 89 77 69 64 60 52 47 39 40 31 30 24 16 17 19 21 21 16 17 21 25 22 28 29 27 25 17 7 8 15 20 20 19 13 15 10 5 1 3 6 2 6 15 37 42 40

GFSSGP_250_spd_033.txt.gz
Wind_Speed
44 46 48 40 44 43 38 42 42 42 43 41 44 42 41 39 43 46 46 49 50 48 41 42 43 44 48 51 52 51 55 57 59 57 60 62 61 63 64 60 56 55 53 51 52 52 55 57 58
43 41 49 48 43 56 43 48 47 47 51 51 49 46 43 40 44 50 48 48 51 49 47 47 48 47 51 48 50 51 56 63 61 63 58 60 62 64 64 64 60 59 57 55 55 57 60 61 60
51 50 52 53 56 54 49 54 52 53 56 55 53 53 52 47 45 49 47 51 54 54 55 53 55 53 51 52 48 54 58 62 64 62 61 61 61 65 66 66 64 62 57 59 61 61 60 61 60
55 54 49 48 55 55 50 51 56 49 57 61 60 60 56 49 48 52 54 54 59 55 56 53 53 57 55 54 51 56 62 63 69 65 62 61 64 65 69 68 64 60 60 62 65 62 62 59 59
55 55 52 45 51 53 51 52 54 52 52 55 56 54 55 51 51 53 50 50 50 52 53 52 52 56 59 59 60 63 67 66 71 68 65 65 66 65 69 67 63 63 61 66 62 60 59 56 56
60 59 57 53 54 59 57 53 51 55 56 58 55 50 51 55 54 55 52 46 44 45 47 53 56 58 62 63 64 67 67 68 67 66 67 69 68 66 72 69 64 63 66 62 59 53 50 52 50
68 60 62 62 57 58 62 66 59 59 58 61 55 57 51 56 58 60 41 47 45 42 47 55 60 65 63 57 60 63 65 66 66 66 68 70 69 68 73 70 67 66 66 64 54 51 53 52 50
73 66 61 61 57 57 63 65 57 58 59 61 48 53 47 49 52 50 51 57 58 52 53 54 58 62 72 65 63 66 66 66 72 68 70 71 69 71 72 70 69 68 65 59 58 56 52 51 48
71 71 65 65 66 63 66 63 61 61 63 61 54 55 54 56 57 57 62 63 68 64 62 62 62 61 70 70 65 65 66 69 72 70 72 72 72 73 70 71 70 69 64 56 59 56 50 49 46
81 74 71 74 71 70 69 68 66 67 67 67 66 56 59 60 60 64 68 66 67 66 60 63 60 55 64 70 68 66 71 72 74 72 72 73 73 72 72 70 72 70 66 57 60 57 50 47 44
85 77 75 79 82 80 76 74 73 72 71 73 64 62 66 65 64 64 69 68 65 65 63 61 58 54 59 69 67 69 73 73 73 73 74 75 75 73 73 69 70 67 62 61 59 53 51 47 43
87 85 87 81 81 82 83 84 78 73 72 73 71 69 70 70 68 70 70 67 66 68 67 59 57 57 62 67 67 73 75 73 73 74 75 77 76 74 72 69 69 63 66 60 55 51 47 45 42
86 81 85 84 90 87 85 82 77 75 71 70 72 73 73 75 72 71 70 66 66 68 64 70 65 63 65 66 68 73 73 75 74 76 75 76 76 75 72 71 66 64 61 54 48 43 41 38 35
86 96 87 83 78 77 79 79 82 72 71 71 73 76 76 76 73 71 69 64 66 67 65 68 69 71 70 69 67 73 71 73 74 74 76 76 75 73 72 72 65 64 59 49 41 35 30 27 26
88 93 92 83 78 77 81 76 68 69 70 71 72 71 69 69 68 68 68 66 67 66 67 67 70 72 79 76 73 74 73 73 74 74 73 73 73 71 71 69 64 61 56 43 31 25 22 24 25
95 94 86 74 76 75 82 70 75 71 75 76 75 71 71 70 69 70 70 70 66 67 68 70 70 77 78 80 77 75 74 72 71 71 68 68 69 71 71 67 63 58 49 37 28 25 26 29 31
95 93 86 71 75 80 86 80 74 76 80 81 78 76 73 72 72 71 70 68 69 67 72 74 73 73 76 79 79 75 75 73 71 68 64 63 65 69 67 65 60 53 42 36 35 33 34 37 39
90 92 82 77 87 93 87 83 70 75 80 79 74 73 73 71 73 73 74 72 71 72 73 69 68 68 72 75 77 74 73 72 67 63 60 62 65 67 64 62 57 48 40 34 34 37 40 42 41
95 90 86 82 91 94 84 84 75 76 81 80 77 77 78 78 76 79 80 76 74 72 72 68 61 63 68 67 70 70 68 65 63 59 59 60 65 63 62 56 50 39 33 32 39 34 33 34 35
98 91 85 89 96 97 89 88 76 75 78 81 83 81 80 79 83 85 82 80 74 72 70 67 61 60 61 63 64 64 62 57 56 58 60 62 62 60 56 48 40 37 37 40 33 31 33 32 30
100 101 97 95 99 95 90 93 81 82 84 85 78 79 78 78 76 75 75 71 67 69 67 62 60 58 59 61 60 56 54 51 54 55 58 61 59 58 52 41 39 38 36 33 28 25 21 18 17
90 93 93 93 97 89 100 84 75 77 75 76 75 67 68 70 70 68 64 57 60 59 56 56 54 53 55 55 53 49 46 50 51 54 59 57 55 51 43 40 36 35 24 21 18 17 15 13 11
89 90 91 90 88 91 88 76 63 71 68 70 64 63 62 60 58 52 51 49 51 47 48 47 48 50 48 46 44 43 44 46 48 54 53 51 48 42 40 37 27 20 17 14 12 11 10 8 8
91 90 94 92 87 81 72 73 54 59 62 60 54 49 42 41 43 39 38 39 40 42 41 41 42 43 39 38 37 39 42 45 49 47 46 44 40 36 34 22 18 15 13 9 9 7 6 5 3
89 89 92 92 89 70 64 66 45 50 49 44 40 37 32 32 31 32 32 34 38 38 37 34 34 33 32 31 35 39 41 45 44 43 40 39 33 28 27 17 17 15 10 9 10 9 9 7 6
93 91 87 80 74 62 59 49 38 48 40 32 32 25 27 28 30 28 31 36 33 31 28 25 26 25 26 29 35 39 42 39 40 37 35 30 27 26 20 17 17 15 10 10 16 14 14 7 4
97 92 81 79 76 72 59 47 45 43 34 25 28 24 30 23 27 29 35 34 27 21 19 19 20 21 25 32 36 38 37 37 33 28 25 23 26 23 15 12 13 7 10 11 12 15 9 4 9
104 92 94 85 79 69 60 53 46 49 40 34 31 23 27 24 29 29 30 21 15 14 14 15 18 23 29 34 35 33 34 30 26 18 21 23 23 17 12 12 8 7 7 8 13 13 14 17 19
99 100 99 92 85 74 65 54 55 50 44 34 30 31 23 23 26 26 18 12 9 15 15 16 21 27 32 32 30 32 26 24 15 15 20 21 17 15 11 8 6 5 5 7 9 13 18 15 15
101 103 98 96 88 82 70 58 57 53 47 37 27 33 27 26 24 17 12 15 18 18 17 20 25 30 30 28 30 26 22 19 10 15 19 18 16 12 13 7 2 4 0 2 7 20 15 14 19

GFSSGP_250_spd_036.txt.gz
Wind_Speed
57 50 48 44 47 41 41 33 44 49 45 44 37 39 38 39 45 45 38 40 42 45 46 46 49 49 53 52 51 48 53 51 50 52 55 58 60 61 63 61 59 59 61 60 61 60 56 54 52
61 55 49 50 47 41 39 42 46 49 48 40 42 41 37 44 49 46 44 49 52 50 48 52 51 54 51 49 49 49 53 55 57 57 59 62 64 63 64 60 61 61 61 61 62 59 54 53 57
54 56 56 51 52 49 46 48 55 57 55 54 52 48 40 42 51 51 51 56 51 49 50 49 50 51 50 46 46 49 51 56 59 60 63 65 64 62 60 62 65 65 62 61 64 61 56 57 59
56 51 50 50 57 54 53 53 58 61 62 58 59 51 45 45 48 52 53 52 53 49 51 54 54 49 45 45 50 53 52 50 54 58 59 60 61 61 63 62 65 66 64 64 66 60 59 60 63
63 59 51 57 55 52 55 57 59 58 58 58 58 48 39 42 46 48 49 52 51 55 55 54 43 45 49 52 56 56 58 60 60 57 59 59 62 66 67 63 64 65 63 67 63 63 63 63 63
76 66 60 61 55 55 55 59 58 59 58 56 57 54 50 50 52 51 47 50 53 57 55 47 48 51 57 60 57 57 58 61 61 61 63 61 65 69 69 66 64 64 65 66 64 65 64 63 61
72 72 73 65 62 61 64 62 62 61 58 58 56 57 51 53 45 46 46 43 46 50 52 50 54 56 62 63 62 59 55 62 63 65 67 65 73 72 71 66 67 65 68 68 65 66 64 61 54
80 69 71 72 65 63 70 60 63 65 63 55 57 59 55 47 46 47 48 43 48 47 51 54 57 54 56 65 65 61 56 62 66 68 67 70 76 75 72 69 68 69 71 69 66 65 63 57 48
77 68 66 64 63 65 74 66 65 63 62 61 58 62 54 52 55 53 49 47 55 53 57 59 60 58 59 61 66 65 60 62 67 70 66 73 76 73 71 71 73 75 71 69 67 65 60 54 51
89 81 77 77 73 67 69 65 66 66 64 64 66 62 64 65 67 64 61 62 59 59 61 65 64 65 63 63 66 65 64 65 68 68 70 76 77 75 73 75 76 74 71 68 67 64 55 54 50
93 84 77 79 82 83 74 69 67 66 64 67 68 68 68 73 73 74 69 69 68 63 61 65 65 56 59 62 66 68 64 65 69 77 76 78 79 76 74 75 74 73 68 67 66 61 54 53 52
101 93 89 82 83 81 77 78 73 76 73 75 76 72 76 74 75 74 73 72 71 69 66 67 63 63 65 62 64 67 68 70 76 79 77 76 78 76 74 74 73 70 66 65 64 61 56 55 52
100 87 95 91 90 89 88 86 79 78 77 76 75 77 73 73 73 74 71 67 67 66 62 60 62 65 61 62 62 64 71 74 78 79 75 75 76 76 74 73 70 64 65 65 62 61 57 51 46
90 96 96 93 90 88 88 80 80 74 80 81 81 80 80 79 76 75 64 61 61 61 61 61 63 67 73 64 65 69 74 75 77 76 72 75 76 75 73 70 65 63 64 65 62 59 55 47 41
104 103 96 88 82 81 86 82 78 76 77 75 74 75 71 72 71 69 65 62 63 68 71 70 65 69 65 62 64 72 75 75 76 73 73 74 73 72 70 66 61 62 64 64 61 56 47 40 36
96 99 98 79 81 80 85 74 71 72 73 80 83 78 73 71 68 69 69 71 75 74 72 68 65 66 71 72 71 73 73 72 71 70 70 69 69 68 66 63 61 63 64 62 58 52 46 39 38
94 89 87 81 84 88 91 70 72 75 79 82 79 73 73 69 69 71 72 71 70 71 72 72 74 76 78 77 76 75 71 68 67 66 65 66 66 63 61 61 62 64 62 59 53 51 47 38 37
94 91 85 85 90 95 99 85 80 80 82 83 77 76 72 71 69 70 72 73 73 73 75 76 79 80 82 83 78 72 67 64 63 61 61 61 58 59 61 60 62 61 59 54 50 46 45 39 38
95 94 91 90 92 91 93 92 86 86 85 86 76 72 73 72 73 74 75 75 77 79 79 78 76 78 77 77 73 68 66 62 58 57 56 54 52 53 56 60 59 57 54 50 43 51 42 40 34
99 96 87 88 90 89 90 91 85 79 73 80 73 74 78 71 76 74 72 78 78 79 78 76 74 69 72 72 69 63 60 56 54 54 52 52 52 53 56 56 55 54 53 49 49 44 43 36 31
100 100 100 96 95 88 90 82 81 77 74 74 73 73 74 75 76 75 78 74 72 71 68 64 64 66 66 64 59 54 51 50 51 50 48 49 50 53 53 52 52 48 47 45 40 35 35 30 26
98 100 102 107 106 99 102 85 82 76 75 76 76 74 73 76 74 75 67 64 64 61 57 56 57 56 55 53 49 46 43 45 45 47 47 47 50 50 50 49 46 44 33 27 28 27 24 21 21
96 98 98 99 99 97 93 93 72 81 78 78 80 75 73 72 70 65 58 58 53 51 48 49 51 50 44 43 40 37 38 41 43 43 44 47 47 47 45 44 41 32 21 21 19 18 18 14 13
101 100 98 95 94 91 85 82 67 72 77 77 71 63 61 60 56 52 51 49 46 42 44 47 45 40 38 35 32 31 33 38 39 41 44 44 43 41 39 38 31 19 20 19 18 14 13 12 12
102 104 102 97 90 76 82 73 60 64 69 64 56 51 50 49 46 45 42 36 36 39 39 37 34 33 30 28 28 29 33 34 38 41 41 39 37 35 33 34 21 15 18 10 10 10 11 9 8
100 100 99 95 91 84 82 67 58 54 57 52 47 45 42 37 35 34 31 29 34 34 31 29 26 24 23 24 26 28 30 35 36 38 37 33 30 30 32 23 11 12 5 7 9 11 10 5 5
100 94 89 89 86 84 75 66 60 59 55 49 39 35 33 29 25 26 26 27 30 24 22 21 19 19 21 23 25 27 33 33 34 33 28 28 29 28 22 10 8 5 6 6 9 7 7 2 2
102 97 95 89 84 74 63 57 49 54 49 39 27 29 27 26 23 22 20 24 22 17 12 14 18 18 19 23 28 29 29 31 30 25 24 27 25 18 11 4 4 4 4 6 11 9 8 6 5
103 102 99 95 86 75 63 50 48 56 47 36 30 34 29 25 20 19 19 22 13 10 16 18 21 19 23 27 28 28 30 27 23 18 23 24 19 10 8 3 3 4 3 5 7 9 5 6 6
103 101 98 98 87 75 66 54 56 58 43 38 35 32 28 26 22 18 18 17 11 15 19 20 21 24 26 28 26 28 26 22 16 18 20 21 14 7 8 3 2 1 4 2 10 4 1 4 0

GFSSGP_250_spd_042.txt.gz
Wind_Speed
63 62 63 62 56 55 50 49 43 42 40 36 34 33 31 38 40 32 36 35 32 35 40 43 46 44 46 47 52 54 54 48 51 53 47 45 52 55 56 57 51 47 46 47 50 53 54 58 61
70 69 68 64 65 49 47 50 52 49 49 46 42 41 37 40 46 43 38 40 38 40 47 48 47 48 51 53 55 57 55 52 53 55 48 55 56 56 54 54 54 53 52 52 52 47 50 53 54
68 68 68 68 64 60 53 49 53 47 52 49 42 49 53 52 43 41 42 43 44 50 50 47 52 52 54 55 57 56 55 51 52 48 57 59 61 60 62 63 56 55 59 58 53 54 56 62 57
71 63 64 63 68 64 60 53 50 54 46 45 45 53 52 52 56 52 46 40 48 50 51 51 54 53 54 56 58 54 52 49 45 56 61 64 68 70 68 61 61 62 61 62 64 63 61 58 58
71 67 62 63 78 76 69 64 63 56 60 53 54 56 57 56 52 52 48 48 47 50 53 54 56 56 57 58 55 52 53 54 60 57 68 70 71 71 66 62 63 63 64 66 68 68 66 62 59
78 74 70 69 70 68 71 71 66 61 61 60 54 56 55 56 52 53 55 56 56 55 53 52 55 57 55 54 53 52 52 60 71 73 74 72 75 68 62 64 65 65 65 68 71 69 67 63 61
83 76 71 71 77 73 75 75 75 70 60 54 57 60 61 59 59 62 62 56 55 54 55 55 51 50 53 53 56 58 69 71 77 75 75 74 71 68 69 69 67 65 67 69 71 71 67 64 59
91 84 71 77 71 70 71 73 69 66 61 65 65 65 67 67 64 58 54 51 52 53 57 50 52 50 51 61 63 74 74 73 72 73 71 71 70 70 75 67 64 65 70 74 73 71 66 62 57
88 85 78 69 71 71 72 74 68 66 68 64 62 58 57 56 55 54 53 53 55 53 53 54 54 56 59 61 70 74 73 73 74 74 70 72 75 77 70 64 68 71 73 74 75 72 67 61 58
81 81 81 85 84 87 79 72 66 62 63 69 70 69 64 62 58 55 51 52 53 55 54 59 57 58 63 67 72 72 75 76 76 74 74 77 77 71 70 72 73 74 76 76 75 71 67 63 61
94 84 87 91 93 89 84 82 79 74 73 75 74 71 68 66 58 59 60 59 56 57 58 57 59 63 68 71 73 71 74 72 75 81 79 77 73 74 76 77 76 75 75 75 72 69 66 63 60
92 93 85 86 94 95 93 88 79 79 78 79 80 72 70 67 67 68 72 64 59 58 59 60 64 69 70 74 73 76 78 81 81 78 74 76 75 78 80 79 81 77 76 74 70 68 63 62 53
105 94 94 91 93 94 98 88 86 86 84 81 77 77 75 73 72 70 67 61 65 60 62 68 71 72 75 74 80 81 79 78 75 72 74 78 77 80 81 83 81 78 76 74 67 63 59 53 56
104 106 107 109 102 98 97 90 94 85 85 79 82 82 79 76 70 69 67 67 70 70 71 78 77 78 76 79 74 73 75 75 72 74 78 78 82 83 77 77 78 76 71 72 66 60 51 56 58
106 108 110 106 103 101 101 95 83 83 87 87 82 77 77 80 81 76 76 75 72 75 78 72 74 75 69 69 71 74 75 72 75 76 79 83 84 78 74 74 70 64 64 63 60 50 53 56 64
113 117 114 109 110 108 111 92 90 93 93 90 91 87 87 82 77 75 71 71 69 71 73 73 67 65 67 69 73 77 72 73 76 81 84 82 77 77 72 62 59 57 58 59 55 53 57 63 61
111 108 106 108 109 112 114 100 100 101 100 94 92 90 86 81 72 70 70 72 73 76 73 68 68 71 72 70 78 72 72 74 78 83 82 81 77 68 61 56 52 49 54 53 47 58 57 57 56
116 115 113 109 106 109 103 92 96 101 101 97 95 90 83 78 74 73 76 79 80 77 75 74 74 75 75 79 71 70 75 78 81 82 81 78 69 62 57 54 49 47 51 50 54 54 55 51 47
126 124 117 120 114 110 104 99 95 95 92 90 86 83 80 76 73 79 80 81 83 82 82 81 79 74 78 70 69 73 79 81 81 80 77 69 64 59 55 51 47 49 50 50 51 53 50 45 43
129 128 128 124 122 119 112 103 97 95 89 87 87 84 83 80 78 78 78 79 80 78 74 71 66 66 66 68 72 76 81 78 77 76 69 64 60 56 51 47 45 47 48 49 50 46 44 41 38
124 123 122 123 126 122 118 111 109 97 94 93 90 92 90 83 78 73 72 73 71 68 61 56 58 61 66 71 72 79 76 74 72 65 62 60 55 49 46 45 46 46 46 44 42 42 41 39 38
124 123 119 119 118 114 116 108 108 101 96 93 91 84 79 77 78 77 76 74 68 61 56 62 64 68 72 73 76 72 69 68 63 59 58 52 45 43 44 44 44 44 41 39 38 39 38 38 37
120 123 120 117 115 113 107 104 89 94 94 85 79 77 76 74 74 74 66 58 56 56 62 67 68 68 69 69 66 66 65 58 58 55 48 41 41 42 43 42 41 37 37 39 34 33 33 32 30
111 113 117 115 109 104 100 102 78 79 78 79 78 74 72 73 70 64 59 57 61 62 67 67 66 62 60 62 62 60 56 55 50 42 36 38 41 41 40 38 35 37 37 33 27 28 28 29 28
112 107 105 106 109 96 96 97 70 74 76 77 76 72 70 68 65 61 60 63 65 68 63 61 55 54 56 57 55 51 49 45 36 33 37 39 38 38 35 32 33 34 31 23 23 24 28 27 21
111 109 105 99 98 94 94 81 68 69 71 74 74 71 68 62 61 62 64 63 61 56 54 50 48 51 50 49 46 44 41 31 30 35 36 36 36 34 28 30 34 31 24 22 18 23 25 20 11
108 106 104 103 94 88 81 75 72 71 71 74 72 66 60 59 58 58 54 51 49 44 45 44 45 44 42 39 35 36 30 28 34 35 34 36 32 27 27 31 30 27 24 19 15 17 20 17 14
106 104 103 102 94 84 76 74 70 71 74 76 64 57 54 50 48 45 43 42 39 40 38 39 39 40 35 27 27 26 27 34 37 33 36 32 28 26 27 29 25 24 20 16 14 19 17 18 16
99 100 98 95 94 86 76 70 68 69 69 69 62 53 50 49 44 43 42 38 37 33 33 35 36 32 25 23 24 24 31 34 32 35 31 28 25 26 26 26 22 21 18 14 13 17 16 16 13
86 91 92 87 88 87 79 69 64 62 61 62 60 54 50 49 45 43 38 37 31 29 33 32 29 23 25 25 21 26 31 29 34 31 26 22 23 25 25 22 19 16 12 8 9 10 9 10 16

GFSSGP_250_spd_045.txt.gz
Wind_Speed
57 56 58 62 60 55 51 50 46 44 43 41 36 34 32 32 35 32 37 37 37 35 37 35 34 40 44 48 47 51 50 45 48 41 42 49 45 47 58 53 62 62 61 57 52 50 55 55 53
62 57 56 60 60 64 53 54 50 48 46 42 43 43 47 49 42 40 39 40 44 43 41 42 41 46 48 47 49 51 51 47 45 44 48 51 47 49 65 65 64 62 58 57 52 55 53 55 56
66 62 59 55 60 62 61 58 60 50 46 48 45 41 40 46 39 44 43 40 40 44 44 43 46 48 46 50 51 52 50 49 46 43 47 48 53 67 70 68 63 60 62 59 57 57 57 54 54
69 63 62 60 63 63 61 55 62 60 52 49 50 47 46 47 46 45 45 44 47 50 47 49 52 56 53 53 55 55 51 51 47 50 42 58 64 70 67 67 67 67 62 61 66 63 57 53 55
69 69 65 65 67 65 62 62 54 58 56 51 51 53 50 55 56 50 49 50 52 53 51 50 56 57 57 58 59 57 56 53 51 44 60 67 70 72 69 69 69 66 65 68 67 59 58 60 61
70 69 64 73 74 70 68 68 65 60 62 61 61 60 59 57 56 57 54 53 53 51 53 60 58 55 55 57 60 60 59 53 52 57 66 73 74 72 68 66 65 67 70 65 61 64 66 67 66
82 75 73 74 85 80 76 70 73 64 61 59 58 62 65 64 64 61 54 57 57 59 62 57 52 49 54 55 59 59 59 59 56 66 74 75 73 70 68 70 69 70 66 66 66 68 68 69 67
82 83 77 75 76 76 78 74 73 74 74 68 68 66 68 69 69 66 61 60 60 59 52 51 50 52 53 54 57 61 61 60 68 73 76 74 72 75 72 74 74 69 68 69 71 70 71 70 66
89 84 78 79 84 89 88 79 75 69 69 67 69 71 68 67 62 63 61 58 52 50 46 45 48 49 52 57 60 62 59 65 73 76 77 75 77 76 74 73 71 71 72 74 76 74 72 69 66
98 88 85 88 90 94 95 88 84 76 76 78 76 68 65 65 60 62 59 57 58 61 59 59 59 60 61 60 61 61 64 69 70 76 76 79 75 73 75 75 74 75 75 80 75 70 68 66 62
93 84 84 89 90 90 91 86 86 84 77 74 72 72 71 66 66 61 61 64 66 61 62 59 61 61 57 58 62 62 68 75 75 77 77 69 75 78 79 76 76 77 81 76 71 68 65 57 55
98 93 94 90 92 90 91 86 82 85 82 68 67 65 65 62 60 66 69 69 70 66 64 63 61 57 61 68 65 65 76 78 78 75 70 73 78 79 75 74 77 79 76 75 68 62 60 53 52
102 99 97 102 100 95 100 89 85 79 79 82 71 68 69 69 69 71 66 66 68 68 69 65 68 68 69 70 67 75 76 76 71 73 76 77 79 75 73 78 80 78 76 68 62 59 54 50 47
95 98 100 101 102 104 103 93 87 76 81 84 85 88 82 81 73 71 74 77 77 79 73 74 71 74 73 68 73 74 76 73 73 78 79 79 75 74 76 80 81 76 65 63 59 57 54 52 51
105 102 101 103 103 102 103 98 88 81 80 84 83 88 85 81 84 85 79 77 77 74 74 74 75 74 70 73 74 80 75 77 81 83 81 77 73 76 80 79 77 67 62 61 57 53 51 52 52
112 109 104 102 103 108 113 97 91 94 91 81 79 79 80 85 81 78 77 76 77 77 76 76 75 72 71 72 81 82 80 83 82 79 77 73 73 78 78 76 69 63 60 58 54 53 53 53 46
114 110 110 109 108 110 113 97 99 102 100 98 96 95 92 85 82 80 79 79 77 72 77 74 68 70 74 80 81 79 81 75 74 72 72 71 76 78 74 69 64 60 56 51 52 52 53 50 51
116 115 110 109 108 111 116 97 104 105 105 100 98 92 89 85 84 85 81 77 75 74 71 70 71 75 78 79 75 73 69 67 69 68 71 73 77 73 70 65 61 52 48 50 52 51 52 55 54
128 122 118 113 114 111 108 114 109 105 100 96 95 94 94 92 90 86 80 76 72 70 70 69 72 75 76 70 68 66 63 68 69 73 75 75 72 70 64 63 56 48 50 49 49 52 54 54 45
122 122 123 122 118 115 112 105 105 106 102 98 100 99 97 93 84 76 74 72 70 70 72 74 75 70 67 69 67 64 66 69 72 73 73 70 68 63 62 57 51 46 45 46 50 52 49 43 43
124 121 117 118 123 118 113 104 101 97 92 92 89 87 87 85 82 77 77 77 74 74 77 74 70 69 69 67 62 62 67 70 70 69 67 66 60 60 53 49 44 43 45 48 49 45 40 41 39
126 125 121 116 116 111 112 101 100 102 100 95 97 95 95 92 86 83 82 77 75 75 72 65 67 67 65 60 58 65 67 68 65 64 62 57 56 50 46 43 43 44 46 45 41 39 39 36 32
120 121 120 122 118 112 105 98 93 103 96 99 99 101 97 95 94 89 85 84 80 78 69 65 61 60 56 57 61 66 64 61 60 59 54 53 46 43 43 43 43 45 42 37 37 35 31 27 30
121 120 118 117 115 112 104 101 90 94 95 99 101 100 98 95 90 83 79 77 73 63 59 59 56 54 55 58 63 60 58 58 55 50 49 41 41 42 41 44 44 40 36 36 34 26 24 24 29
113 116 119 116 110 96 100 101 88 91 93 91 91 89 85 81 75 69 68 63 59 57 57 54 54 53 56 57 55 55 54 49 46 46 40 39 40 40 43 42 38 34 35 34 28 21 20 25 21
103 108 111 111 108 100 100 88 83 79 86 87 86 82 79 74 64 60 57 55 54 53 53 52 51 54 51 48 49 51 46 43 41 39 37 39 38 40 40 37 32 33 35 28 22 17 19 20 17
91 92 102 105 102 102 96 82 78 74 79 83 78 73 68 64 60 55 53 54 53 50 50 49 49 47 42 44 46 42 38 37 34 34 36 36 38 38 35 31 30 32 29 26 19 16 17 17 20
83 87 92 96 95 92 88 88 79 75 75 75 74 70 64 57 53 52 53 50 49 47 45 43 41 39 40 42 40 36 34 33 32 33 33 36 36 33 30 27 27 28 24 22 16 14 14 16 12
69 75 78 77 83 87 84 85 81 75 67 70 69 64 58 52 52 49 46 46 44 41 39 36 37 39 37 36 33 31 31 28 30 30 33 33 29 28 25 23 25 22 19 13 11 10 12 7 7
56 69 68 69 76 81 82 81 76 72 67 65 57 54 53 55 52 46 45 41 38 38 36 37 37 34 33 29 29 28 28 29 29 29 31 26 27 23 23 24 24 18 12 5 6 7 5 8 12

GFSSGP_250_spd_048.txt.gz
Wind_Speed
59 56 52 49 48 48 49 51 53 49 47 48 47 42 40 33 39 35 33 35 36 36 39 39 35 36 38 43 42 44 48 49 44 42 41 47 43 44 37 47 52 60 65 63 56 57 55 54 57
63 60 58 53 51 54 53 51 55 53 52 52 48 47 41 48 44 44 47 50 41 42 35 38 40 41 45 45 46 48 51 50 47 47 49 48 42 41 47 56 63 67 67 61 57 56 56 59 60
68 65 63 57 55 59 57 54 54 57 58 60 52 49 48 50 46 42 42 40 36 38 40 41 40 45 48 46 47 53 56 49 47 50 51 44 43 40 54 60 67 69 71 64 62 64 66 63 58
74 69 63 57 66 66 60 56 53 56 56 51 49 54 58 49 43 45 45 46 41 39 42 45 47 50 46 48 56 57 53 49 54 49 47 45 44 50 58 68 71 70 67 66 66 65 67 63 56
73 71 65 77 68 68 62 60 57 54 57 58 51 48 56 56 55 51 53 51 55 54 50 51 50 51 50 53 58 53 51 52 47 44 49 51 51 58 69 72 73 70 70 68 66 68 65 60 59
78 76 70 72 76 75 67 68 63 58 59 59 60 53 54 54 55 58 59 59 55 54 53 53 55 50 53 58 56 51 50 47 50 51 52 54 59 67 71 74 73 70 66 65 69 68 67 65 63
80 75 71 69 81 77 68 65 66 63 62 61 60 58 62 57 57 53 53 56 61 60 59 58 55 53 57 50 46 46 52 56 61 61 63 61 61 68 75 74 70 65 68 73 72 68 67 68 69
87 81 84 81 77 79 69 65 70 64 64 65 65 67 65 66 62 62 61 63 61 63 60 56 53 58 43 53 51 57 61 63 62 66 68 66 66 79 73 70 65 70 73 72 67 66 70 70 64
89 84 78 80 83 88 81 77 74 72 72 73 73 68 69 67 71 71 70 68 66 62 60 56 60 51 61 65 65 63 61 59 66 69 69 66 77 76 73 67 70 75 75 68 68 72 73 69 64
91 84 82 82 84 89 90 86 83 80 81 78 74 71 67 68 68 67 69 69 69 61 61 61 58 58 62 61 59 56 58 63 68 72 71 74 73 74 71 72 76 77 72 68 71 75 70 64 57
104 90 90 94 97 94 92 87 83 81 78 77 71 72 77 78 75 74 72 72 75 74 65 60 59 60 61 60 67 70 62 69 72 68 74 77 79 80 77 79 83 76 71 71 76 71 66 60 57
104 101 100 93 95 96 96 92 85 82 82 83 80 78 82 83 83 85 83 77 70 66 64 62 62 57 58 65 62 64 73 71 73 78 77 82 83 79 79 81 75 71 69 72 70 65 61 58 55
100 97 99 101 98 94 98 95 92 91 87 87 83 79 80 81 80 84 81 69 63 59 60 64 61 62 63 63 70 68 75 76 78 75 77 82 83 80 79 74 71 69 71 70 66 62 58 56 52
101 100 100 101 106 105 103 100 99 84 85 79 78 82 79 73 76 75 65 61 59 62 66 67 66 68 69 72 72 75 79 78 74 72 78 83 80 76 70 71 71 74 70 66 66 59 57 56 47
105 108 103 100 101 101 106 97 90 83 79 83 83 82 78 75 80 77 69 68 74 75 76 77 75 73 74 72 74 77 71 73 74 76 80 80 77 71 70 71 76 74 68 65 62 58 56 49 47
114 115 109 100 105 105 113 105 86 91 94 90 83 78 77 84 83 79 82 81 79 79 74 75 74 74 76 72 70 67 66 70 76 79 80 78 75 72 72 75 73 70 68 60 60 58 54 52 45
114 111 111 112 110 112 115 99 94 99 108 99 95 91 87 81 79 75 82 81 76 72 74 70 71 78 76 68 66 66 69 72 74 78 78 77 71 72 74 72 70 68 63 60 58 52 50 49 46
108 113 114 115 114 121 118 99 98 103 102 100 98 94 91 88 88 88 85 82 79 79 77 76 77 76 78 81 67 67 70 74 75 77 77 70 71 73 70 68 67 64 62 58 52 46 45 47 46
114 113 112 112 114 115 110 104 103 104 106 100 96 97 96 92 93 92 91 90 89 86 85 81 81 79 74 61 65 70 72 73 76 74 71 67 71 70 67 65 61 61 56 50 46 48 48 46 49
118 117 111 113 115 115 111 99 105 105 102 101 96 92 93 92 94 94 92 91 89 87 84 82 76 74 66 66 71 71 73 72 72 69 63 68 69 66 65 60 59 55 48 47 46 48 47 47 44
120 118 117 116 116 115 111 104 104 100 104 101 98 98 98 94 95 97 93 90 86 82 81 81 71 66 66 68 72 75 68 68 67 62 63 66 64 64 59 57 52 47 48 46 45 48 47 43 43
119 118 120 119 118 111 113 102 109 102 99 102 99 96 97 94 92 91 93 87 83 79 73 69 72 71 74 72 69 67 65 61 61 60 63 62 61 56 56 51 47 48 47 47 48 45 41 43 35
119 119 118 118 116 114 112 108 99 100 100 101 102 102 102 100 93 87 84 79 75 74 75 71 72 72 70 69 66 65 61 57 58 59 59 59 55 54 48 46 48 47 48 48 43 38 39 35 24
110 115 119 117 115 114 101 110 95 100 98 100 105 106 106 100 97 95 91 85 83 78 73 72 74 74 68 64 59 57 55 56 55 55 54 51 50 48 47 47 47 47 47 43 38 36 34 26 19
99 103 108 111 113 104 101 103 91 98 100 99 98 98 101 97 93 88 88 87 83 79 79 73 68 63 61 55 53 52 53 51 51 51 47 47 47 44 46 45 46 46 41 38 35 30 27 18 15
86 95 93 94 97 101 109 103 87 91 94 97 98 96 91 88 85 80 79 78 78 74 68 63 59 56 53 49 49 48 48 47 47 45 42 43 42 44 44 45 45 40 37 35 32 26 21 17 15
71 77 86 90 88 97 95 95 100 94 88 89 90 90 89 85 77 72 70 69 66 63 59 55 53 50 47 46 46 44 43 44 42 38 40 39 41 42 43 44 39 35 35 33 26 21 16 14 13
62 68 73 82 81 79 88 89 89 95 91 93 82 76 75 74 73 70 66 64 60 56 51 50 48 45 44 43 42 39 40 39 34 36 36 38 41 39 42 38 36 32 30 22 17 12 9 9 8
52 58 64 72 72 75 83 83 94 90 89 87 78 71 65 62 61 65 63 59 52 49 49 46 43 42 38 39 36 37 36 31 32 33 34 39 38 41 38 36 33 28 22 14 8 5 5 3 1
45 49 58 63 65 69 79 83 86 84 84 84 77 70 61 53 57 58 55 52 49 49 45 40 39 38 37 36 35 34 28 29 32 31 34 36 37 39 35 33 28 24 15 8 2 1 3 0 3